Location: Castelbiague
(43.0361°N, 0.9246°E)
Time: 12:53:48
(UTC+00:00)

Meteor 1-4 Rocket - Pass Details

Date: 26 October 2021
Orbit: 446 x 496 km, 81.2° (Epoch: 29 November)

Event Time Altitude Azimuth Distance (km) Brightness Sun altitude
Rises 17:31:15 0° 166° (SSE) 2,461 6.1 -7.0°
Reaches altitude 10° 17:33:28 10° 155° (SSE) 1,586 5.0 -7.4°
Maximum altitude 17:36:31 29° 94° (E) 850 3.3 -8.0°
Drops below altitude 10° 17:39:34 10° 32° (NNE) 1,585 4.8 -8.5°
Sets 17:41:47 0° 21° (NNE) 2,459 5.8 -8.9°
